Regional Weather Roundup
Issued by NWS

Home | Current Version | Previous Version | Text Only | Print | Product List | Glossary On
Versions: 1 2 3 4 5 6 7 8 9 10 11 12 13 14 15 16 17 18 19 20 21 22 23 24 25 26 27
000
ASUS44 KLIX 190811
RWRLA
LOUISIANA WEATHER ROUNDUP
NATIONAL WEATHER SERVICE NEW ORLEANS LA
200 AM CST SUN NOV 19 2017

NOTE: "FAIR" INDICATES FEW OR NO CLOUDS BELOW 12,000 FEET WITH NO
      SIGNIFICANT WEATHER AND/OR OBSTRUCTIONS TO VISIBILITY.
      SKY/WX - SKY CONDITION AND SIGNIFICANT WEATHER.
      TMP - AIR TEMPERATURE.    DP   - DEWPOINT TEMPERATURE.
      RH  - RELATIVE HUMIDITY.  PRES - PRESSURE.
      HX  - HEAT INDEX.         WCI  - WIND CHILL INDEX.

*  THESE STATIONS ARE NOT NWS OR FAA STATIONS AND ARE NOT UNDER
   NWS QUALITY CONTROL.

LAZ040-048-061>063-065-066-069-190900-
SOUTHEAST LOUISIANA

CITY           SKY/WX    TMP DP  RH WIND       PRES   REMARKS
N.O. INTL ARPT MOCLDY    59  45  59 N18G28    30.06R
N.O. LAKEFRONT CLOUDY    59  46  62 N25G37    30.07R
N.O. DOWNTOWN* CLOUDY    60  44  55 N8G17     30.07R
RESERVE*       CLOUDY    58  40  51 N17G23    30.09R
SLIDELL        CLOUDY    55  40  56 N13G26    30.05R
BATON ROUGE    PTCLDY    53  39  59 N12       30.12R
BOOTHVILLE     CLOUDY    65  54  67 N16G24    30.00R
BELLE CHASSE   MOCLDY    59  46  62 N16G25    30.04R
BOGALUSA*      NOT AVBL
GALLIANO*      PTSUNNY   58  46  63 N22G28    30.02R
NEW ROADS*     FAIR      52  40  63 N13       30.15R
GONZALES*      PTSUNNY   55  38  51 N16G26    30.10R
HAMMOND*       CLOUDY    52  39  62 N16G25    30.10R
HOUMA*         MOCLDY    57  43  57 N15G26    30.05R
PORT FOURCHON* NOT AVBL

$$

LAZ041-044-053-054-190900-
SOUTHWEST LOUISIANA

CITY           SKY/WX    TMP DP  RH WIND       PRES   REMARKS
LAKE CHARLES   CLEAR     54  39  57 N16G26    30.16R
LAFAYETTE      PTCLDY    48  42  80 N16G23    30.13R
PATTERSON      MOCLDY    57  45  64 N15       30.08R
SALT POINT       N/A     57  44  62 N10G22    30.06R
NEW IBERIA     PTCLDY    55  40  56 N21       30.12R
CHENAULT AIRPK PTCLDY    52  39  61 N15G21    30.17S

$$

LAZ027-028-190900-
CENTRAL LOUISIANA

CITY           SKY/WX    TMP DP  RH WIND       PRES   REMARKS
FORT POLK      CLEAR     49  35  58 N9G17     30.19R
ALEXANDRIA INT CLEAR     49  36  61 N9        30.18R
ALEXANDRIA     CLEAR     49  38  65 N6        30.19R

$$

LAZ001-002-190900-
NORTHWEST LOUISIANA

CITY           SKY/WX    TMP DP  RH WIND       PRES   REMARKS
SHREVEPORT     CLEAR     44  37  76 W6        30.24S
BARKSDALE AFB  CLEAR     41  34  77 N7        30.24S
DTN SHREVEPORT CLEAR     45  37  73 NW7       30.25R

$$

LAZ014-016-190900-
NORTHEAST LOUISIANA

CITY           SKY/WX    TMP DP  RH WIND       PRES   REMARKS
MONROE         CLEAR     47  36  65 N10       30.21S
TALLULAH       CLEAR     48  38  68 N8        30.18R

$$





USA.gov is the U.S. government's official web portal to all federal, state and local government web resources and services.